Probability
6 3 2 3 2 1 0 0 0 0 0 0 0 0 0 0 0 0 0 0 0 0 0 0 0 0 0 0 0 0 0 0 0 0 0 0 0 0 0 0 0 0 0
4 3 2 2 2 1 0 0 0 0 0 0 0 0 0 0 0 0 0 0 0 0 0 0 0 0 0 0 0 0 0 0 0 0 0 0 0 0 0 0 0 0 0
3 2 2 1 1 0 0 0 0 0 0 0 0 0 0 0 0 0 0 0 0 0 0 0 0 0 0 0 0 0 0 0 0 0 0 0 0 0 0 0 0 0 0
4 3 1 0 0 0 0 0 0 0 0 0 0 0 0 0 0 0 0 0 0 0 0 0 0 0 0 0 0 0 0 0 0 0 0 0 0 0 0 0 0 0 0
7 4 1 0 0 0 0 0 0 0 0 0 0 0 0 0 0 0 0 0 0 0 0 0 0 0 0 0 0 0 0 0 0 0 0 0 0 0 0 0 0 0 0
11 6 1 0 0 0 0 0 0 0 0 0 0 0 0 0 0 0 0 0 0 0 0 0 0 0 0 0 0 0 0 0 0 0 0 0 0 0 0 0 0 0 0
10 6 1 0 0 0 0 0 0 0 0 0 0 0 0 0 0 0 0 0 0 0 0 0 0 0 0 0 0 0 0 0 0 0 0 0 0 0 0 0 0 0 0
8 5 1 0 0 0 0 0 0 0 0 0 0 0 0 0 0 0 0 0 0 0 0 0 0 0 0 0 0 0 0 0 0 0 0 0 0 0 0 0 0 0 0
8 4 1 0 0 0 0 0 0 0 0 0 0 0 0 0 0 0 0 0 0 0 0 0 0 0 0 0 0 0 0 0 0 0 0 0 0 0 0 0 0 0 0
6 3 0 0 0 0 0 0 0 0 0 0 0 0 0 0 0 0 0 0 0 0 0 0 0 0 0 0 0 0 0 0 0 0 0 0 0 0 0 0 0 0 0
3 1 0 0 0 0 0 0 0 0 0 0 0 0 0 0 0 0 0 0 0 0 0 0 0 0 0 0 0 0 0 0 0 0 0 0 0 0 0 0 0 0 0
1 0 0 0 0 0 0 0 0 0 0 0 0 0 0 0 0 0 0 0 0 0 0 0 0 0 0 0 0 0 0 0 0 0 0 0 0 0 0 0 0 0 0
0 0 0 0 0 0 0 0 0 0 0 0 0 0 0 0 0 0 0 0 0 0 0 0 0 0 0 0 0 0 0 0 0 0 0 0 0 0 0 0 0 0 0
0 0 0 0 0 0 0 0 0 0 0 0 0 0 0 0 0 0 0 0 0 0 0 0 0 0 0 0 0 0 0 0 0 0 0 0 0 0 0 0 0 0 0
0 0 0 0 0 0 0 0 0 0 0 0 0 0 0 0 0 0 0 0 0 0 0 0 0 0 0 0 0 0 0 0 0 0 0 0 0 0 0 0 0 0 0
0 0 0 0 0 0 0 0 0 0 0 0 0 0 0 0 0 0 0 0 0 0 0 0 0 0 0 0 0 0 0 0 0 0 0 0 0 0 0 0 0 0 0
0 0 0 0 0 0 0 0 0 0 0 0 0 0 0 0 0 0 0 0 0 0 0 0 0 0 0 0 0 0 0 0 0 0 0 0 0 0 0 0 0 0 0
0 0 0 0 0 0 0 0 0 0 0 0 0 0 0 0 0 0 0 0 0 0 0 0 0 0 0 0 0 0 0 0 0 0 0 0 0 0 0 0 0 0 0
0 0 0 0 0 0 0 0 0 0 0 0 0 0 0 0 0 0 0 0 0 0 0 0 0 0 0 0 0 0 0 0 0 0 0 0 0 0 0 0 0 0 0
0 0 0 0 0 0 0 0 0 0 0 0 0 0 0 0 0 0 0 0 0 0 0 0 0 0 0 0 0 0 0 0 0 0 0 0 0 0 0 0 0 0 0
0 0 0 0 0 0 0 0 0 0 0 0 0 0 0 0 0 0 0 0 0 0 0 0 0 0 0 0 0 0 0 0 0 0 0 0 0 0 0 0 0 0 0
0 0 0 0 0 0 0 0 0 0 0 0 0 0 0 0 0 0 0 0 0 0 0 0 0 0 0 0 0 0 0 0 0 0 0 0 0 0 0 0 0 0 0
0 0 0 0 0 0 0 0 0 0 0 0 0 0 0 0 0 0 0 0 0 0 0 0 0 0 0 0 0 0 0 0 0 0 0 0 0 0 0 0 0 0 0
0 0 0 0 0 0 0 0 0 0 0 0 0 0 0 0 0 0 0 0 0 0 0 0 0 0 0 0 0 0 0 0 0 0 0 0 0 0 0 0 0 0 0
0 0 0 0 0 0 0 0 0 0 0 0 0 0 0 0 0 0 0 0 0 0 0 0 0 0 0 0 0 0 0 0 0 0 0 0 0 0 0 0 0 0 0
0 0 0 0 0 0 0 0 0 0 0 0 0 0 0 0 0 0 0 0 0 0 0 0 0 0 0 0 0 0 0 0 0 0 0 0 0 0 0 0 0 0 0
Wind_Speed
7 8 8 9 8 7 7 6 7 5 5 4 5 5 5 4 5 6 7 7 7 7 6 5 5 5 4 4 4 2 3 3 3 3 4 3 3 2 1 1 3 5 6
8 8 8 7 8 8 8 8 7 6 6 4 4 4 5 5 4 4 6 7 7 6 6 5 4 4 3 4 4 3 1 2 3 2 3 4 4 2 2 3 4 5 4
10 9 8 8 8 8 8 8 8 8 8 7 6 6 4 4 4 4 4 5 6 6 5 5 4 3 3 2 2 2 1 1 2 1 1 3 4 4 3 4 4 4 5
10 9 9 9 9 8 8 9 8 9 8 7 7 7 5 3 2 2 2 4 5 4 4 4 3 3 2 2 2 2 1 1 2 2 1 3 3 5 5 3 5 7 8
11 11 10 10 9 8 8 8 9 9 8 8 7 8 6 3 2 2 3 3 3 3 4 3 3 3 2 2 2 2 2 1 1 1 2 3 3 5 5 8 7 8 8
12 12 10 10 9 7 7 8 10 8 7 7 7 8 7 5 3 3 2 2 2 2 4 3 3 3 2 2 2 2 2 1 1 2 2 3 4 5 6 8 11 11 10
13 13 12 10 9 8 7 7 9 8 6 7 6 6 6 5 4 2 1 2 2 2 3 3 3 2 2 2 1 1 1 2 2 3 3 4 6 6 7 9 11 12 11
12 12 11 10 9 8 7 6 7 7 5 6 5 4 4 3 2 1 1 1 1 2 3 3 3 3 2 1 1 1 1 2 3 5 6 6 6 6 7 7 9 11 10
13 12 10 8 8 8 6 6 6 6 5 5 5 4 3 2 2 1 1 1 2 3 3 4 3 3 2 1 1 0 1 2 3 5 7 7 7 7 7 7 8 8 10
13 11 9 8 6 6 5 5 5 5 4 3 2 2 1 1 1 1 2 3 3 3 4 4 3 2 1 1 0 1 2 3 4 5 7 8 7 7 7 7 7 8 10
14 11 8 7 7 7 5 4 4 3 3 2 1 1 0 1 1 2 3 3 3 4 4 4 3 3 3 3 2 3 4 5 7 7 9 11 11 8 8 7 8 8 9
13 11 10 9 8 7 5 4 3 2 2 1 0 1 1 1 2 3 3 3 4 4 4 4 4 4 5 4 4 5 5 6 8 10 11 12 10 11 9 8 9 9 9
14 12 11 10 9 7 4 3 2 2 1 1 1 1 2 2 2 3 4 4 4 5 4 4 5 6 5 5 6 6 7 7 9 10 12 13 13 13 10 10 10 8 8
16 14 12 10 8 7 5 3 2 2 2 1 2 2 2 3 3 4 4 4 4 5 5 5 6 6 6 6 6 6 7 8 10 11 12 13 13 13 13 11 10 9 8
18 16 13 11 10 7 5 4 3 2 2 2 3 3 3 3 4 4 5 5 5 6 5 6 6 5 5 5 6 6 8 9 12 13 14 14 17 19 14 11 9 9 8
19 17 15 13 11 8 6 4 3 3 2 3 4 4 4 4 5 5 5 5 6 5 5 5 5 5 4 7 9 9 8 10 13 14 14 14 15 16 18 19 19 16 13
18 17 15 12 10 8 6 5 3 2 2 3 4 4 4 5 6 5 5 5 5 4 4 4 3 4 5 8 10 14 11 11 12 13 13 12 12 15 12 15 18 18 21
16 14 12 10 7 5 4 3 2 2 3 3 4 5 5 5 5 5 5 4 3 3 3 3 4 4 6 11 13 17 11 11 12 13 13 13 14 13 13 12 13 14 13
12 11 10 8 6 5 4 3 2 1 2 4 5 5 4 5 5 5 4 4 3 4 4 4 5 6 8 12 14 16 10 10 13 13 12 13 12 15 17 14 13 13 10
11 11 9 7 6 4 3 3 1 1 3 4 4 4 4 4 4 5 5 5 5 5 5 6 6 6 8 12 15 16 8 10 11 11 12 14 14 16 18 13 11 10 6
11 9 8 6 4 4 4 2 0 2 3 3 4 5 6 6 6 6 5 5 5 5 6 6 7 7 9 12 15 16 9 9 10 10 9 9 16 19 19 14 7 5 3
9 7 6 4 3 3 3 2 2 2 3 5 7 7 7 6 6 6 5 5 5 6 6 7 8 7 8 10 13 17 17 15 11 9 9 10 17 19 16 8 3 0 2
7 5 6 4 2 2 2 2 2 2 5 7 7 6 7 6 5 5 5 4 5 5 6 7 8 8 8 9 13 15 18 19 12 9 16 18 18 14 8 7 8 6 5
6 5 5 4 3 3 3 2 2 5 7 7 6 5 6 5 5 4 4 4 5 6 7 8 8 8 8 8 9 9 10 13 12 10 13 16 13 9 8 8 8 8 7
4 5 5 4 3 3 4 4 5 7 8 6 5 5 5 4 5 4 3 4 3 5 7 6 7 8 8 11 16 12 9 9 10 11 7 6 7 7 6 6 7 7 7
5 5 5 4 4 5 5 5 5 6 7 6 5 4 4 4 4 4 5 6 7 11 11 10 9 7 9 15 16 18 18 17 17 9 7 7 7 7 6 6 7 7 7
Wind_Direction
117 101 98 102 94 82 83 81 86 81 92 95 93 87 75 65 62 61 56 55 56 58 58 59 50 50 57 48 33 26 27 11 350 344 323 304 295 288 241 323 320 310 307
127 110 96 92 96 98 91 84 81 77 72 79 85 92 96 80 70 55 51 51 55 54 64 59 56 48 54 46 39 36 17 354 14 2 324 323 322 337 313 308 297 303 313
150 130 113 104 103 99 95 94 87 81 77 80 87 87 74 63 46 39 37 35 51 58 59 57 57 47 48 39 24 37 41 333 316 307 279 301 297 308 282 283 291 301 304
147 136 126 119 114 109 103 100 95 88 83 84 90 91 92 87 64 47 37 30 37 46 49 48 45 36 25 12 347 36 4 308 303 313 293 265 276 291 301 286 288 293 295
149 143 136 128 121 116 111 106 98 90 88 91 99 101 98 102 98 67 52 35 20 24 26 36 25 10 353 341 340 349 347 323 283 292 300 294 283 256 279 294 295 295 287
147 140 133 128 120 116 113 110 104 99 99 100 101 108 112 115 103 72 49 21 355 352 1 7 3 343 330 319 318 324 339 340 311 298 282 278 283 288 284 290 296 295 293
150 146 144 141 136 129 119 115 115 111 106 103 100 104 113 113 108 102 65 24 353 331 330 346 334 326 319 317 335 5 6 6 340 314 295 283 275 278 282 286 291 292 293
155 151 149 144 138 129 121 119 114 111 109 108 102 100 107 109 108 100 83 358 297 285 300 329 333 336 346 14 55 64 18 11 337 322 308 297 289 281 277 279 289 293 291
155 151 146 139 136 131 128 129 124 124 123 114 109 104 105 103 95 64 13 316 304 300 330 334 334 336 351 37 81 75 329 326 315 311 306 300 295 287 278 271 266 273 286
150 147 144 138 129 122 116 116 131 134 123 114 115 112 101 90 67 12 337 319 312 312 317 315 311 300 288 267 244 275 289 307 307 304 303 301 295 289 280 271 263 256 266
153 149 141 128 118 112 114 121 119 110 113 118 102 92 1 352 352 332 310 304 300 301 297 294 287 270 259 249 251 270 283 297 303 305 306 302 298 290 283 277 269 262 259
149 144 136 128 123 120 125 127 124 139 161 162 165 268 303 326 328 313 303 298 295 293 288 286 279 267 257 245 251 271 284 290 299 304 305 303 300 292 288 281 275 270 265
146 140 137 136 133 131 135 134 157 188 202 201 228 275 295 306 306 302 302 300 294 293 292 284 273 268 263 256 257 265 279 288 293 298 300 299 297 292 287 282 278 275 275
151 146 142 138 135 136 146 155 199 213 217 220 238 258 271 277 284 290 293 291 289 287 285 279 273 270 272 269 269 275 286 292 296 298 296 294 290 286 284 280 276 277 279
157 153 148 144 142 145 156 177 203 217 222 222 235 251 265 274 280 283 285 288 288 284 280 282 284 286 284 280 282 286 295 301 305 304 300 294 290 286 285 286 287 287 283
159 153 150 150 150 155 167 186 206 226 228 232 248 263 273 279 278 278 283 287 289 290 291 292 296 303 305 314 316 319 310 309 308 306 303 299 293 293 296 296 294 289 285
155 152 151 150 150 156 168 182 205 225 230 246 264 270 271 277 280 286 291 290 292 296 305 317 328 330 329 336 332 326 323 312 305 300 298 297 295 298 292 291 293 290 284
146 142 139 137 138 146 162 172 193 217 239 263 276 283 287 288 293 298 298 300 308 327 343 3 8 356 344 343 333 328 322 308 301 296 292 289 290 290 290 292 290 286 284
127 126 127 127 133 149 161 155 162 229 270 287 296 303 305 306 318 332 344 359 23 27 25 21 11 354 336 332 328 329 316 308 306 301 297 293 289 289 293 296 291 290 291
116 119 120 123 136 147 146 139 160 287 306 312 316 332 351 7 23 34 40 39 44 34 21 11 356 339 324 320 322 324 316 311 309 305 302 300 295 297 300 297 289 289 299
111 115 123 131 141 140 133 126 37 327 319 344 25 40 48 61 62 59 52 45 39 27 14 357 338 325 315 315 319 324 324 313 307 304 305 303 302 304 304 300 286 273 286
113 118 123 123 119 125 124 92 9 340 31 61 64 58 52 59 62 58 47 37 27 15 1 348 339 329 323 320 322 324 324 322 312 308 306 305 308 312 313 314 323 48 102
120 120 123 115 97 99 108 71 4 54 83 80 70 61 59 53 49 47 35 19 8 360 347 343 341 337 334 329 326 324 324 326 325 313 316 319 321 324 331 19 53 77 84
116 114 112 102 75 51 59 68 71 94 97 88 75 62 56 44 32 26 16 5 354 348 345 346 342 337 335 338 337 332 327 327 329 325 321 322 330 347 8 37 59 67 74
100 103 104 95 67 52 55 66 94 105 99 88 76 61 49 37 20 8 349 348 327 331 339 340 337 337 340 333 330 333 333 333 331 327 327 339 350 8 29 53 68 73 78
99 96 90 81 67 69 70 73 91 103 100 86 70 56 45 33 21 7 359 355 352 343 345 343 343 336 330 331 338 342 340 338 339 343 348 355 3 15 32 54 68 72 78